Location: Baia de Cri?
(46.1667°N, 22.7167°E)
Time: 21:24:02
(UTC+00:00)

ATLAS 2AS CENTAUR R/B - Pass Details

Date: 15 January 2026
Orbit: 1050 x 1161 km, 63.7° (Epoch: 10 February)

Event Time Altitude Azimuth Distance (km) Brightness Sun altitude
Exits shadow 05:26:59 - 316° (NW) 3,281 4.7 -7.1°
Reaches altitude 10° 05:28:08 10° 314° (NW) 2,873 4.4 -6.9°
Maximum altitude 05:34:39 53° 241° (WSW) 1,277 3.0 -5.9°
Drops below altitude 10° 05:41:10 10° 166° (SSE) 2,869 5.6 -4.9°
Sets 05:43:52 0° 162° (SSE) 3,829 6.3 -4.5°
